DMSP 5D-2 F11 DEB, 28345

Orbit data source: Space-Track

DMSP 5D-2 F11 DEB, 28345 is space debris in SSO originally from a launch on Thu, 28 Nov 1991 UTC launched from the Air Force Western Test Range (AFWTR). Debris objects in space refer to the collection of defunct objects orbiting the Earth. Examples of debris include non-operational satellites, rocket bodies, and fragments generated from explosions, collisions, or faulty payload assembly.

Loading next visibility...
Identifier
28345, 1991-082BJ
Orbit
SSO
Country
Flag of USUS
Related business
Manufacturer
Unknown
Mission
Spacecraft
Bus & Motor
Unknown
Mass
Unknown
Launch date (UTC)
1991-11-28 (34 years ago)
Launch vehicle
Unknown
Launch site
Air Force Western Test Range (AFWTR)
Object type
Payload
Rocket body
Debris
Shape & HBR
Unknown shape, 0.1 m
Radar Cross Section
Small (<0.1 m²)

Expand to show TLE details & history
Last TLE update: 9 hours ago

TLE from 9 hours ago
0 DMSP 5D-2 F11 DEB
1 28345U 91082BJ  26121.22703156  .00045901  00000-0  75008-2 0  9991
2 28345  98.6163 226.4097 0044749  42.1776 318.2857 14.69987922122648
Epoch: 2026-05-01T05:26Z
TLE epoch observation values (Epoch: 2026-05-01T05:26:55.526Z)
Latitude
-0.00005°
Longitude
-74.48397°
Altitude
640.636 km
Speed
7.55 km/s
True Right ascension
15h 05m 38s
True Declination
0° 00' 00"
Sunlit
Object was in full shadow at epoch
Visualization orbit readout
Latitude
Unknown
Longitude
Unknown
Altitude
Unknown
Speed
Unknown
Apparent Right ascension
Unknown
Apparent Declination
Unknown
Sunlit
N/A
Visualization observer readout
Local Sidereal Time
21:53:14
Azimuth
Unknown
Elevation
Unknown
Doppler factor
Unknown
Orbital elements
Apogee altitude
689.681 km
Perigee altitude
626.707 km
Semi-major axis
7,036.331 km
Eccentricity
0.00447
Inclination
98.6163°
RAAN
226.4097°
Arg. of periapsis
42.1776°
True anomaly
317.94306°
Mean anomaly
318.2857°
Eccentric anomaly
318.11452°
Mean motion
3.67726 °/min
Orbital period
97.9 mins
BSTAR
0.0075008
Loading maneuver chart data...
Computing Atmospheric mass density...

Documentation

Showing up to 5 results
|